Cut Bank, MT

4:31 PM MDT on April 23, 2018 (GMT -0600)
Cut Bank Municipal

Weather History for KCTB - August, 2014

Change the Weather History Date:

Saturday, August 9, 2014

  Actual Average Record
Temperature  
Mean Temperature 64 °F 66 °F  
Max Temperature 80 °F 81 °F 101 °F (1930)
Min Temperature 48 °F 50 °F 35 °F (1946)
Degree Days  
Heating Degree Days 1 2  
Month to date heating degree days 1 18  
Since 1 June heating degree days 291 337  
Since 1 July heating degree days 18 104  
Cooling Degree Days 0 3  
Month to date cooling degree days 42 27  
Year to date cooling degree days 147 116  
Since 1 June cooling degree days 147 114  
Growing Degree Days 14 (Base 50)    
Moisture  
Dew Point 49 °F    
Average Humidity 65    
Maximum Humidity 100    
Minimum Humidity 30    
Precipitation  
Precipitation 0.00 in 0.04 in 0.75 in (1956)
Month to date precipitation 0.20 0.33  
Year to date precipitation 11.35 7.80  
Snow  
Snow 0.00 in - - ()
Snow Depth 0.00 in    
Sea Level Pressure  
Sea Level Pressure 30.14 in    
Wind  
Wind Speed 8 mph (North)    
Max Wind Speed 20 mph    
Max Gust Speed 24 mph    
Visibility 7 miles    
Events Fog    
T = Trace of Precipitation, MM = Missing Value Source: NWS Daily Summary

Daily Weather History Graph

Daily Weather History Graph

Search for Another Location

Airport or City:

Astronomy

Aug. 09, 2014 Rise Set
Actual Time 6:14 AM MDT 8:54 PM MDT
Civil Twilight 5:38 AM MDT 9:29 PM MDT
Nautical Twilight 4:53 AM MDT 10:15 PM MDT
Astronomical Twilight 3:59 AM MDT 11:08 PM MDT
Moon 7:56 PM MDT (8/9) 4:59 AM MDT (8/9)
Length of Visible Light 15h 51m
Length of Day
14h 39m
Waxing Gibbous, 98% of the Moon is Illuminated
Aug 9
Waxing Gibbous
Aug 10
Full
Aug 17
Last Quarter
Aug 25
New
Sep 2
First Quarter

Hourly Weather History & Observations

Time (MDT) Temp. Dew Point Humidity Pressure Visibility Wind Dir Wind Speed Gust Speed Precip Events Conditions
12:56 AM 55.9 °F 52.0 °F 87% 30.00 in 10.0 mi NW 18.4 mph - 0.00 in   Clear
1:56 AM 55.0 °F 51.1 °F 86% 30.02 in 10.0 mi NNW 16.1 mph - N/A   Clear
2:56 AM 53.1 °F 51.1 °F 93% 30.04 in 10.0 mi NW 11.5 mph - N/A   Clear
3:56 AM 52.0 °F 50.0 °F 93% 30.05 in 10.0 mi NW 12.7 mph - N/A   Clear
4:56 AM 50.0 °F 48.0 °F 93% 30.09 in 9.0 mi NNW 8.1 mph - N/A   Clear
5:56 AM 50.0 °F 48.0 °F 93% 30.10 in 8.0 mi North 8.1 mph - N/A   Clear
6:22 AM 51.1 °F 48.9 °F 92% 30.18 in 4.0 mi North 10.4 mph - N/A   Scattered Clouds
6:26 AM 51.1 °F 48.9 °F 92% 30.18 in 2.5 mi North 10.4 mph - N/A   Mostly Cloudy
6:34 AM 51.1 °F 50.0 °F 96% 30.19 in 1.2 mi North 9.2 mph - N/A   Mostly Cloudy
6:46 AM 51.1 °F 50.0 °F 96% 30.19 in 1.0 mi North 9.2 mph - N/A   Overcast
6:56 AM 51.1 °F 50.0 °F 96% 30.11 in 0.8 mi NNW 5.8 mph - N/A   Overcast
7:05 AM 52.0 °F 51.1 °F 97% 30.20 in 0.2 mi NW 4.6 mph - N/A Fog Fog
7:36 AM 51.1 °F 50.0 °F 96% 30.20 in 0.2 mi West 6.9 mph - N/A Fog Fog
7:56 AM 52.0 °F 51.1 °F 97% 30.14 in 0.2 mi WNW 5.8 mph - N/A Fog Fog
8:06 AM 53.1 °F 52.0 °F 96% 30.21 in 3.0 mi NW 4.6 mph - N/A   Mostly Cloudy
8:44 AM 54.0 °F 52.0 °F 93% 30.22 in 9.0 mi NNW 6.9 mph - N/A   Scattered Clouds
8:51 AM 53.6 °F 51.8 °F 94% 30.22 in 9.0 mi North 5.8 mph - N/A   Mostly Cloudy
8:56 AM 55.9 °F 51.1 °F 84% 30.16 in 10.0 mi NNW 9.2 mph - N/A   Scattered Clouds
9:56 AM 60.1 °F 51.1 °F 72% 30.16 in 10.0 mi North 5.8 mph - N/A   Clear
11:56 AM 68.0 °F 48.9 °F 50% 30.18 in 10.0 mi Calm Calm - N/A   Clear
12:56 PM 72.0 °F 48.0 °F 43% 30.16 in 10.0 mi Variable 3.5 mph - N/A   Partly Cloudy
1:56 PM 73.0 °F 46.9 °F 39% 30.15 in 10.0 mi Variable 4.6 mph - N/A   Partly Cloudy
2:56 PM 73.9 °F 46.9 °F 38% 30.14 in 10.0 mi Calm Calm - N/A   Clear
3:56 PM 78.1 °F 46.0 °F 32% 30.13 in 10.0 mi NE 5.8 mph - N/A   Clear
4:56 PM 78.1 °F 46.0 °F 32% 30.12 in 10.0 mi East 10.4 mph - N/A   Partly Cloudy
5:56 PM 78.1 °F 45.0 °F 31% 30.11 in 10.0 mi North - - N/A   Clear
6:56 PM 75.9 °F 44.1 °F 32% 30.11 in 10.0 mi SSE 6.9 mph - N/A   Clear
7:56 PM 73.9 °F 44.1 °F 34% 30.12 in 10.0 mi East 9.2 mph - N/A   Clear
8:56 PM 68.0 °F 44.1 °F 42% 30.13 in 10.0 mi ENE 10.4 mph - N/A   Clear
9:56 PM 66.0 °F 45.0 °F 47% 30.15 in 10.0 mi ENE 10.4 mph - N/A   Clear
10:56 PM 63.0 °F 46.9 °F 56% 30.15 in 10.0 mi East 9.2 mph - N/A   Clear
11:56 PM 64.0 °F 45.0 °F 50% 30.14 in 10.0 mi SE 10.4 mph - N/A   Clear